This is the latest recevied weather packets stored in our database for station/object SQ9RHX-13. If no packets are shown the sender has not sent any weather packets the latest 10 day(s).
| Time | Temp. | Humidity | Pressure | Rain* | Wind** | Luminosity | Snow |
|---|---|---|---|---|---|---|---|
| 1777447204 | 7.78° C | 40% | 1032.7 hPa | 0 mm | - | 370 W/m² | - |
| 1777446904 | 7.78° C | 37% | 1032.7 hPa | 0 mm | - | 361 W/m² | - |
| 1777446606 | 7.78° C | 38% | 1032.7 hPa | 0 mm | - | 346 W/m² | - |
| 1777446303 | 7.78° C | 40% | 1032.7 hPa | 0 mm | - | 334 W/m² | - |
| 1777446003 | 7.22° C | 42% | 1032.3 hPa | 0 mm | - | 323 W/m² | - |
| 1777445704 | 7.78° C | 41% | 1032.4 hPa | 0 mm | - | 308 W/m² | - |
| 1777445403 | 7.78° C | 40% | 1032.4 hPa | 0 mm | - | 294 W/m² | - |
| 1777445103 | 7.78° C | 41% | 1032.3 hPa | 0 mm | - | 283 W/m² | - |
| 1777444806 | 7.22° C | 41% | 1032.3 hPa | 0 mm | - | 270 W/m² | - |
| 1777444504 | 7.22° C | 41% | 1032.4 hPa | 0 mm | - | 256 W/m² | - |
| 1777444203 | 6.67° C | 42% | 1032.3 hPa | 0 mm | - | 245 W/m² | - |
| 1777443904 | 6.67° C | 42% | 1032.4 hPa | 0 mm | - | 231 W/m² | - |
| 1777443603 | 6.67° C | 44% | 1032.1 hPa | 0 mm | - | 218 W/m² | - |
| 1777443304 | 6.11° C | 45% | 1032.2 hPa | 0 mm | - | 205 W/m² | - |
| 1777443004 | 6.11° C | 45% | 1032.2 hPa | 0 mm | - | 193 W/m² | - |
| 1777442703 | 5.56° C | 46% | 1032.2 hPa | 0 mm | - | 184 W/m² | - |
| 1777442403 | 6.11° C | 46% | 1032 hPa | 0 mm | - | 172 W/m² | - |
| 1777442103 | 5.56° C | 47% | 1032 hPa | 0 mm | - | 163 W/m² | - |
| 1777441803 | 6.11° C | 47% | 1032 hPa | 0 mm | - | 154 W/m² | - |
| 1777441504 | 6.11° C | 48% | 1031.8 hPa | 0 mm | - | 141 W/m² | - |
| 1777441203 | 5.56° C | 49% | 1031.7 hPa | 0 mm | - | 133 W/m² | - |
| 1777440906 | 5.56° C | 49% | 1031.7 hPa | 0 mm | - | 124 W/m² | - |
| 1777440604 | 5° C | 50% | 1031.6 hPa | 0 mm | - | 114 W/m² | - |
| 1777440303 | 5° C | 51% | 1031.5 hPa | 0 mm | - | 107 W/m² | - |
| 1777440003 | 4.44° C | 51% | 1031.6 hPa | 0 mm | - | 97 W/m² | - |
* Rain latest hour (hover to see other rain measurements)
** Current wind speed in m/s (hover to see current wind gust speed)